Flag for U.S.A. Weather past 2 weeks in Provo, Utah, U.S.A.

Now
72 °F

Passing clouds.


Feels Like: 77 °F
Forecast: 61 / 85 °F
Wind: No wind

Location: Provo Municipal

Current Time: Aug 2, 2015 at 10:48:49 AM

Latest Report: Aug 2, 2015 at 9:51 AM


Visibility: 15 mi

Pressure: 30.06 "Hg (25.60 "Hg at 1386m altitude)

Humidity: 36%

Dew point: 43 °F

Location of ProvoLocation

Historic Weather in Provo — Graph

°F

Provo temperature yesterday

Maximum temperature yesterday: 91 °F (at 6:50 PM)
Minimum temperature yesterday: 55 °F (at 6:35 AM)
Average temperature yesterday: 69 °F

Past Weeks' High & Low Weather Summary

 TemperatureHumidityPressure
High93 °F (Jul 26, 2:51 PM)77% (Jul 21, 6:35 AM)30.34 "Hg (Jul 21, 6:35 AM)
Low48 °F (Jul 29, 5:15 AM)11% (Jul 26, 2:51 PM)29.84 "Hg (Jul 26, 6:47 PM)
Average67 °F44%30.11 "Hg
* Reported Jul 18 9:51 AM — Aug 2 9:51 AM, Provo, Weather by CustomWeather, © 2015

Note: Actual official high and low records may vary slightly from our data, if they occured in-between our weather recording intervals... More about our weather records

Advertising

Provo weather history for previous 24 hours

 ConditionsComfort  
Time TempWeatherWind HumidityBarometerVisibility
9:51 AM
Sun, Aug 2
72 °FPassing clouds.No wind36%30.06 "Hg15 mi
8:50 AM66 °FPassing clouds.No wind46%30.06 "Hg15 mi
7:52 AM68 °FPassing clouds.No wind40%30.05 "Hg15 mi
7:00 AM57 °FPassing clouds.No wind59%30.05 "Hg15 mi
6:35 AM57 °FClear.No wind55%30.05 "Hg10 mi
6:15 AM57 °FClear.No wind51%30.04 "Hg10 mi
5:55 AM63 °FClear.5 mph42%30.03 "Hg10 mi
5:35 AM61 °FClear.5 mph45%30.03 "Hg10 mi
5:15 AM64 °FClear.5 mph40%30.03 "Hg10 mi
4:55 AM66 °FClear.12 mph35%30.03 "Hg10 mi
4:35 AM61 °FClear.5 mph48%30.03 "Hg10 mi
4:15 AM59 °FClear.5 mph51%30.03 "Hg10 mi
3:55 AM63 °FClear.5 mph42%30.03 "Hg10 mi
3:35 AM61 °FClear.No wind48%30.03 "Hg10 mi
3:15 AM63 °FClear.5 mph42%30.02 "Hg10 mi
2:55 AM61 °FClear.No wind52%30.02 "Hg10 mi
2:35 AM61 °FClear.No wind48%30.02 "Hg10 mi
2:15 AM61 °FClear.No wind52%30.02 "Hg10 mi
1:55 AM63 °FClear.No wind45%30.02 "Hg10 mi
1:35 AM64 °FClear.3 mph40%30.02 "Hg10 mi
1:15 AM64 °FClear.6 mph40%30.03 "Hg10 mi
12:55 AM66 °FClear.6 mph37%30.03 "Hg10 mi
12:35 AM66 °FClear.3 mph37%30.03 "Hg10 mi
12:15 AM66 °FClear.5 mph43%30.03 "Hg10 mi
11:55 PM
Sat, Aug 1
66 °FClear.5 mph43%30.03 "Hg10 mi
11:35 PM66 °FClear.5 mph46%30.03 "Hg10 mi
11:15 PM66 °FClear.8 mph46%30.03 "Hg10 mi
10:55 PM70 °FClear.6 mph40%30.03 "Hg10 mi
10:35 PM72 °FClear.3 mph38%30.04 "Hg10 mi
10:15 PM73 °FClear.No wind41%30.03 "Hg10 mi
9:55 PM73 °FClear.6 mph41%30.03 "Hg10 mi
9:35 PM75 °FSunny.No wind39%30.02 "Hg8 mi
9:15 PM79 °FSunny.3 mph32%30.02 "Hg10 mi
8:55 PM79 °FSunny.3 mph30%30.01 "Hg10 mi
7:47 PM86 °FPassing clouds.3 mph24%30.02 "Hg15 mi
6:50 PM91 °FPassing clouds.6 mph14%30.02 "Hg15 mi
4:47 PM90 °FPassing clouds.6 mph18%30.05 "Hg15 mi
3:47 PM90 °FPassing clouds.6 mph18%30.08 "Hg15 mi
2:54 PM88 °FPassing clouds.6 mph19%30.10 "Hg15 mi
1:53 PM84 °FPassing clouds.6 mph19%30.13 "Hg15 mi
12:47 PM81 °FPassing clouds.6 mph28%30.15 "Hg15 mi
11:47 AM79 °FPassing clouds.6 mph26%30.17 "Hg15 mi
10:53 AM73 °FPassing clouds.No wind36%30.18 "Hg15 mi
Weather by CustomWeather, © 2015

See weather overviewHow to use our weather pages